Estación de Quillota

Ultimos registro cada 15 minutos 77
Estación Fecha / Hora Temperatura Humedad Lluvia Velocidad Dirección Radiación Presion
77 Quillota 10-05-2026 19:15 10,1 88 0 0 251 0 1013,1
76 Quillota 10-05-2026 19:00 9,9 87 0 0 248 0 1013,1
75 Quillota 10-05-2026 18:45 10,2 85 0 0 248 0 1013
74 Quillota 10-05-2026 18:30 10,7 84 0 0 248 0 1012,8
73 Quillota 10-05-2026 18:15 11,3 83 0 0 248 0 1012,6
72 Quillota 10-05-2026 18:00 11,8 82 0 0,9 171 0 1012,5
71 Quillota 10-05-2026 17:45 12,4 80 0 1,3 255 7 1012,3
70 Quillota 10-05-2026 17:30 13,3 78 0 1,3 266 19 1012
69 Quillota 10-05-2026 17:15 14,4 74 0 2,7 275 40 1011,7
68 Quillota 10-05-2026 17:00 15,4 72 0 1,8 267 76 1011,6
67 Quillota 10-05-2026 16:45 15,9 71 0 1,8 263 113 1011,5
66 Quillota 10-05-2026 16:30 16,3 69 0 1,3 264 153 1011,5
65 Quillota 10-05-2026 16:15 17,1 68 0 3,1 269 186 1011,5
64 Quillota 10-05-2026 16:00 17,8 66 0 3,1 272 218 1011,3
63 Quillota 10-05-2026 15:45 18,8 63 0 1,8 248 244 1011,4
62 Quillota 10-05-2026 15:30 19,4 61 0 1,3 246 271 1011,2
61 Quillota 10-05-2026 15:15 20,9 55 0 1,3 244 297 1011,2
60 Quillota 10-05-2026 15:00 22,1 51 0 3,6 271 318 1011,2
59 Quillota 10-05-2026 14:45 22,9 48 0 3,1 275 343 1011
58 Quillota 10-05-2026 14:30 24,4 41 0 3,6 271 364 1010,9
57 Quillota 10-05-2026 14:15 26,2 37 0 2,2 257 381 1011,1
56 Quillota 10-05-2026 14:00 27 30 0 3,1 270 397 1010,9
55 Quillota 10-05-2026 13:45 26,9 30 0 2,2 258 411 1011
54 Quillota 10-05-2026 13:30 26,4 30 0 2,7 282 418 1011,3
53 Quillota 10-05-2026 13:15 25,7 32 0 0,9 249 427 1011,3
52 Quillota 10-05-2026 13:00 24,6 34 0 0,9 235 429 1011,7
51 Quillota 10-05-2026 12:45 24,1 34 0 1,3 311 432 1011,9
50 Quillota 10-05-2026 12:30 23,6 36 0 1,3 262 429 1012,1
49 Quillota 10-05-2026 12:15 22,9 37 0 1,3 276 424 1012,1
48 Quillota 10-05-2026 12:00 22,9 39 0 1,3 252 418 1012,1
47 Quillota 10-05-2026 11:45 22,7 34 0 1,3 283 410 1012
46 Quillota 10-05-2026 11:30 22 33 0 2,2 254 399 1012,1
45 Quillota 10-05-2026 11:15 20,8 41 0 1,3 243 383 1012,4
44 Quillota 10-05-2026 11:00 20,1 41 0 0,9 298 362 1012,3
43 Quillota 10-05-2026 10:45 19,6 40 0 0,4 263 345 1012,2
42 Quillota 10-05-2026 10:30 17,9 47 0 0,9 264 322 1012,3
41 Quillota 10-05-2026 10:15 16,7 49 0 0,4 250 297 1012,4
40 Quillota 10-05-2026 10:00 15,6 57 0 0,9 232 272 1012,5
39 Quillota 10-05-2026 09:45 14,4 58 0 0,4 190 246 1012,5
38 Quillota 10-05-2026 09:30 13,5 65 0 0,9 150 218 1012,5
37 Quillota 10-05-2026 09:15 11,6 71 0 0 150 185 1012,4
36 Quillota 10-05-2026 09:00 9,6 77 0 0,4 342 167 1012,6
35 Quillota 10-05-2026 08:45 7,7 83 0 0,4 105 128 1012,3
34 Quillota 10-05-2026 08:30 5,2 86 0 0,4 153 90 1012,6
33 Quillota 10-05-2026 08:15 4,1 86 0 0,4 63 12 1012,2
32 Quillota 10-05-2026 08:00 3,6 83 0 0 26 9 1012,2
31 Quillota 10-05-2026 07:45 4,4 81 0 0 19 7 1012,2
30 Quillota 10-05-2026 07:30 4,3 83 0 0,9 123 0 1012,4
29 Quillota 10-05-2026 07:15 5,2 77 0 0,4 257 0 1012,3
28 Quillota 10-05-2026 07:00 6,1 80 0 0,4 170 0 1012,4
27 Quillota 10-05-2026 06:45 6 83 0 0 173 0 1012,4
26 Quillota 10-05-2026 06:30 5,6 85 0 0,9 180 0 1012,4
25 Quillota 10-05-2026 06:15 5,2 82 0 1,3 125 0 1012,3
24 Quillota 10-05-2026 06:00 6,4 86 0 0 216 0 1012,1
23 Quillota 10-05-2026 05:45 5,4 86 0 0 250 0 1011,8
22 Quillota 10-05-2026 05:30 5,4 89 0 0 104 0 1011,5
21 Quillota 10-05-2026 05:15 4,8 90 0 0 80 0 1011,6
20 Quillota 10-05-2026 05:00 4,3 91 0 0,9 111 0 1011,5
19 Quillota 10-05-2026 04:45 4,7 92 0 0 123 0 1011,5
18 Quillota 10-05-2026 04:30 4,2 89 0 0 176 0 1011,6
17 Quillota 10-05-2026 04:15 3,8 90 0 0 17 0 1011,9
16 Quillota 10-05-2026 04:00 3,9 91 0 0 360 0 1012
15 Quillota 10-05-2026 03:45 4,1 89 0 0,9 101 0 1012,3
14 Quillota 10-05-2026 03:30 5,3 90 0 0,4 134 0 1012,5
13 Quillota 10-05-2026 03:15 3,7 90 0 0,9 102 0 1012,6
12 Quillota 10-05-2026 03:00 4,2 90 0 0 100 0 1012,5
11 Quillota 10-05-2026 02:45 3,9 90 0 0 100 0 1012,6
10 Quillota 10-05-2026 02:30 4,2 89 0 0 163 0 1012,7
9 Quillota 10-05-2026 02:15 4,1 88 0 0,4 261 0 1012,7
8 Quillota 10-05-2026 02:00 4,8 88 0 0 261 0 1012,5
7 Quillota 10-05-2026 01:45 5,7 88 0 0 268 0 1012,6
6 Quillota 10-05-2026 01:30 6,4 89 0 0 234 0 1012,8
5 Quillota 10-05-2026 01:00 5,7 88 0 0,4 239 0 1012,9
4 Quillota 10-05-2026 00:45 6,1 88 0 0 239 0 1013,1
3 Quillota 10-05-2026 00:30 6,9 87 0 0 239 0 1013,2
2 Quillota 10-05-2026 00:15 7,3 92 0 0,4 152 0 1013,2
1 Quillota 10-05-2026 00:00 6,6 89 0 0 150 0 1013